This is the latest recevied weather packets stored in our database for station/object KA1JKB. If no packets are shown the sender has not sent any weather packets the latest 10 day(s).
| Time | Temp. | Humidity | Pressure | Rain* | Wind** | Luminosity | Snow |
|---|---|---|---|---|---|---|---|
| 1787774536 | 25° C | 77% | 1009.7 hPa | 0 mm | - | 209 W/m² | - |
| 1787774236 | 25° C | 76% | 1009.8 hPa | 0 mm | - | 230 W/m² | - |
| 1787773935 | 25° C | 76% | 1010.1 hPa | 0 mm | - | 229 W/m² | - |
| 1787773634 | 24.44° C | 75% | 1010.1 hPa | 0 mm | - | 175 W/m² | - |
| 1787773330 | 25° C | 75% | 1010.2 hPa | 0 mm | - | 117 W/m² | - |
| 1787773025 | 25° C | 74% | 1010.2 hPa | 0 mm | - | 216 W/m² | - |
| 1787772721 | 25° C | 76% | 1010.3 hPa | 0 mm | - | 265 W/m² | - |
| 1787772419 | 25° C | 76% | 1010.2 hPa | 0 mm | - | 282 W/m² | - |
| 1787772118 | 25° C | 75% | 1010.1 hPa | 0 mm | - | 281 W/m² | - |
| 1787771818 | 25° C | 74% | 1010.3 hPa | 0 mm | - | 295 W/m² | - |
| 1787771517 | 25° C | 74% | 1010.2 hPa | 0 mm | - | 295 W/m² | - |
| 1787771217 | 24.44° C | 75% | 1010.3 hPa | 0 mm | - | 277 W/m² | - |
| 1787770913 | 24.44° C | 75% | 1010.4 hPa | 0 mm | - | 210 W/m² | - |
| 1787770611 | 24.44° C | 74% | 1010.4 hPa | 0 mm | - | 179 W/m² | - |
| 1787770306 | 25° C | 73% | 1010.4 hPa | 0 mm | - | 186 W/m² | - |
| 1787770004 | 25° C | 74% | 1010.3 hPa | 0 mm | - | 259 W/m² | - |
| 1787769699 | 25° C | 75% | 1010.5 hPa | 0 mm | - | 211 W/m² | - |
| 1787769397 | 25° C | 73% | 1010.5 hPa | 0 mm | - | 216 W/m² | - |
| 1787769093 | 25.56° C | 71% | 1010.4 hPa | 0 mm | - | 274 W/m² | - |
| 1787768788 | 25.56° C | 72% | 1010.5 hPa | 0 mm | - | 322 W/m² | - |
| 1787768484 | 26.11° C | 70% | 1010.6 hPa | 0 mm | - | 591 W/m² | - |
| 1787768180 | 25.56° C | 70% | 1010.7 hPa | 0 mm | - | 700 W/m² | - |
| 1787767875 | 25.56° C | 72% | 1010.8 hPa | 0 mm | - | 669 W/m² | - |
| 1787767571 | 25.56° C | 71% | 1011.2 hPa | 0 mm | - | 668 W/m² | - |
| 1787767269 | 25.56° C | 71% | 1010.9 hPa | 0 mm | - | 654 W/m² | - |
* Rain latest hour (hover to see other rain measurements)
** Current wind speed in m/s (hover to see current wind gust speed)